GW1374 Weather Reports


Display with metric or nautical units.
time (UTC)temp
F
wind
direction
speed
MPH
gust
MPH
rain 1hr
in
rain 24hr
in
rain mn
in
humidity
%
barometer
mb
20260902171610 68 171 1.0 4.0 0.00 0.22 0.22 97 1018.5
20260902170054 68 265 0.0 2.0 0.00 0.22 0.22 97 1018.6
20260902164551 68 126 0.0 2.0 0.01 0.22 0.22 97 1018.7
20260902163056 69 162 1.0 3.0 0.03 0.22 0.22 98 1018.8
20260902161555 69 0 0.0 2.0 0.06 0.22 0.22 98 1018.9
20260902160107 69 0 0.0 2.0 0.09 0.22 0.22 98 1018.7
20260902154557 69 158 1.0 16.0 0.10 0.21 0.21 98 1018.2
20260902153058 69 196 1.0 4.0 0.12 0.19 0.19 98 1018.6
20260902151556 69 41 0.0 2.0 0.16 0.16 0.16 98 1018.6
20260902150052 69 229 0.0 2.0 0.13 0.13 0.13 98 1018.4
20260902144555 69 178 0.0 2.0 0.10 0.12 0.10 98 1018.4
20260902143052 69 123 1.0 3.0 0.07 0.09 0.07 98 1018.3
20260902141554 69 178 0.0 4.0 0.00 0.02 0.00 98 1018.1
20260902140058 69 0 0.0 2.0 0.00 0.02 0.00 98 1018.5
20260902134556 69 178 0.0 2.0 0.00 0.22 0.00 98 1019.0
20260902133105 69 0 0.0 2.0 0.00 0.22 0.00 98 1018.8
20260902131552 69 153 1.0 4.0 0.00 0.22 0.00 98 1017.9
20260902130057 69 178 0.0 2.0 0.00 0.22 0.00 98 1018.2
20260902124551 69 162 1.0 2.0 0.00 0.38 0.00 98 1018.1
20260902123104 69 178 0.0 2.0 0.00 0.38 0.00 98 1018.2
20260902121555 68 178 1.0 2.0 0.00 0.38 0.00 98 1017.9
20260902120051 68 178 0.0 2.0 0.00 0.38 0.00 98 1017.8
20260902114553 68 0 0.0 3.0 0.00 0.55 0.00 98 1017.7
20260902113057 68 178 1.0 2.0 0.00 0.55 0.00 98 1017.5
20260902111552 68 0 0.0 2.0 0.00 0.55 0.00 97 1017.6
20260902104547 68 165 1.0 2.0 0.00 0.56 0.00 98 1017.4
20260902103057 68 162 0.0 2.0 0.00 0.56 0.00 97 1017.7
20260902101551 68 178 0.0 1.0 0.00 0.56 0.00 98 1017.7
20260902100053 68 0 0.0 2.0 0.00 0.56 0.00 98 1017.8
20260902094557 68 178 0.0 2.0 0.00 0.56 0.00 98 1017.7
20260902093052 68 178 0.0 2.0 0.00 0.56 0.00 98 1017.8
20260902091601 68 0 0.0 2.0 0.00 0.56 0.00 98 1017.6
20260902090057 67 162 0.0 1.0 0.00 0.56 0.00 98 1017.6
20260902084558 67 0 0.0 1.0 0.00 0.61 0.00 98 1017.9
20260902083057 67 0 0.0 2.0 0.00 0.61 0.00 98 1017.8
20260902081548 67 153 0.0 2.0 0.00 0.61 0.00 97 1017.6
20260902080112 67 162 0.0 2.0 0.00 0.61 0.00 97 1017.4
20260902074552 67 0 0.0 1.0 0.00 0.61 0.00 97 1017.5
20260902073048 67 0 0.0 2.0 0.00 0.61 0.00 97 1017.5
20260902071559 68 205 0.0 1.0 0.00 0.61 0.00 97 1017.3
20260902070054 68 165 0.0 2.0 0.00 0.61 0.00 97 1017.4
20260902064555 68 0 0.0 1.0 0.00 0.61 0.00 97 1017.6
20260902063104 68 178 0.0 1.0 0.00 0.61 0.00 97 1017.6
20260902061611 68 0 0.0 1.0 0.00 0.61 0.00 97 1017.7
20260902060105 69 0 0.0 1.0 0.00 0.61 0.00 97 1017.8
20260902054600 69 0 0.0 1.0 0.00 0.61 0.00 97 1017.8
20260902053054 69 0 0.0 2.0 0.00 0.61 0.00 97 1017.6
20260902051551 69 205 1.0 2.0 0.00 0.61 0.00 97 1017.6
20260902050052 69 221 1.0 2.0 0.00 0.61 0.00 97 1017.5
20260902044557 69 221 0.0 2.0 0.00 0.61 0.00 96 1017.5
20260902043102 69 9 0.0 2.0 0.00 0.61 0.00 96 1017.3
20260902041552 70 0 0.0 1.0 0.00 0.61 0.00 96 1017.1
20260902040051 70 0 0.0 1.0 0.00 0.61 0.00 96 1017.2
20260902034557 70 0 0.0 1.0 0.00 0.61 0.61 96 1017.0
20260902033104 70 93 0.0 1.0 0.00 0.61 0.61 96 1017.0
20260902031553 71 0 0.0 2.0 0.00 0.61 0.61 96 1016.8
20260902024555 71 0 0.0 1.0 0.00 0.62 0.61 95 1016.9
20260902023053 71 76 0.0 2.0 0.00 0.62 0.61 95 1017.0
20260902021554 71 0 1.0 2.0 0.00 0.62 0.61 94 1017.0
20260902020053 72 0 0.0 2.0 0.00 0.62 0.61 94 1017.0
20260902014551 72 0 0.0 2.0 0.00 0.66 0.61 94 1017.0
20260902013057 72 0 0.0 1.0 0.00 0.66 0.61 93 1016.9
20260902011557 72 0 0.0 1.0 0.00 0.66 0.61 93 1016.5
20260902010053 72 0 0.0 1.0 0.00 0.66 0.61 92 1016.5
20260902004553 72 0 0.0 1.0 0.00 0.74 0.61 92 1016.3
20260902003100 73 0 0.0 1.0 0.00 0.74 0.61 91 1016.0
20260902001554 73 0 0.0 1.0 0.00 0.74 0.61 91 1015.8
20260902000053 73 0 0.0 1.0 0.00 0.74 0.61 91 1015.8
20260901234559 73 0 0.0 1.0 0.00 0.77 0.61 91 1015.7
20260901233056 74 0 0.0 1.0 0.00 0.77 0.61 90 1016.0
20260901231552 74 9 0.0 2.0 0.00 0.77 0.61 89 1015.5
20260901230053 74 41 0.0 2.0 0.00 0.77 0.61 89 1015.6
20260901224558 75 9 0.0 2.0 0.00 0.78 0.61 89 1015.7
20260901223049 75 61 0.0 2.0 0.00 0.78 0.61 88 1015.3
20260901221616 75 0 0.0 2.0 0.00 0.78 0.61 88 1015.4
20260901220105 75 0 0.0 2.0 0.00 0.78 0.61 89 1015.5
20260901214551 76 0 0.0 1.0 0.00 0.79 0.61 90 1015.5
20260901213107 75 232 0.0 2.0 0.00 0.79 0.61 90 1015.6
20260901211558 75 0 0.0 2.0 0.00 0.79 0.61 90 1015.0
20260901210053 75 0 1.0 3.0 0.00 0.79 0.61 91 1015.3
20260901204550 74 51 0.0 1.0 0.00 0.84 0.61 95 1015.2
20260901203105 74 0 0.0 1.0 0.00 0.84 0.61 95 1015.4
20260901201553 74 0 0.0 2.0 0.00 0.84 0.61 95 1015.5
20260901200054 74 0 0.0 2.0 0.00 0.84 0.61 97 1015.6
20260901194548 73 9 0.0 2.0 0.00 0.92 0.61 97 1015.7
20260901193100 73 0 0.0 2.0 0.00 0.92 0.61 98 1015.6
20260901191614 73 9 0.0 2.0 0.00 0.92 0.61 98 1015.5
20260901190056 73 0 0.0 2.0 0.00 0.92 0.61 98 1015.6
20260901184552 73 0 0.0 2.0 0.00 0.92 0.61 98 1015.4
20260901183053 72 205 0.0 2.0 0.00 0.92 0.61 98 1015.6
20260901181549 72 162 0.0 2.0 0.00 0.92 0.61 98 1015.1
20260901180058 72 0 0.0 2.0 0.00 0.92 0.61 98 1015.1
20260901174553 71 0 0.0 2.0 0.00 0.96 0.61 98 1015.3
20260901173059 72 0 0.0 2.0 0.00 0.96 0.61 98 1015.0